Regional Weather Roundup
Issued by NWS

Home | Current Version | Previous Version | Text Only | Print | Product List | Glossary On
Versions: 1 2 3 4 5 6 7 8 9 10 11 12 13 14 15 16 17 18 19 20 21 22 23 24 25 26 27 28 29 30 31 32 33 34 35 36 37 38 39 40 41 42 43 44 45 46 47 48 49 50
000
ASUS45 KBOI 250810
RWRID

IDAHO REGIONAL WEATHER ROUNDUP
NATIONAL WEATHER SERVICE BOISE ID
200 AM MDT MON MAY 25 2015

NOTE: "FAIR" INDICATES FEW OR NO CLOUDS BELOW 12000 FEET
WITH NO SIGNIFICANT WEATHER AND/OR OBSTRUCTIONS TO VISIBILITY

IDZ012-014-250900-
SOUTHWEST IDAHO


CITY           SKY/WX    TMP DP  RH WIND       PRES   REMARKS
BOISE          CLEAR     58  46  64 SE12      29.87S
CALDWELL       PTCLDY    55  43  62 SE6       29.87S
MOUNTAIN HOME  CLEAR     54  47  76 SE5       29.87F
$$

IDZ016-017-250900-
SOUTHCENTRAL IDAHO


CITY           SKY/WX    TMP DP  RH WIND       PRES   REMARKS
BURLEY         CLEAR     47  43  86 SW3       29.91S
JEROME         PTCLDY    50  44  80 E8        29.91S
TWIN FALLS     PTCLDY    52  44  74 S10       29.89S
$$

IDZ019>023-250900-
SOUTHEAST IDAHO


CITY           SKY/WX    TMP DP  RH WIND       PRES   REMARKS
IDAHO FALLS    PTCLDY    51  47  86 SW5       29.92S
POCATELLO      CLEAR     51  46  83 SW12      29.92S
REXBURG        MOCLDY    50  44  80 CALM      29.92S
$$

IDZ006-010-011-018-031-032-250900-
CENTRAL IDAHO MOUNTAINS


CITY           SKY/WX    TMP DP  RH WIND       PRES   REMARKS
MCCALL         CLEAR     46  40  79 N3        29.92F
HAILEY         CLEAR     45  43  93 NW7       29.97S
STANLEY          N/A     38  34  85 S3        30.01S
SALMON         PTCLDY    48  39  71 CALM      29.92S
CHALLIS        PTCLDY    47  38  71 CALM      29.94F
$$

IDZ002-004-006-007-026-250900-
NORTHERN IDAHO


CITY           SKY/WX    TMP DP  RH WIND       PRES   REMARKS
LEWISTON       PTCLDY    61  51  70 S5        29.81S
LOWELL           N/A     54  52  93 N3        29.87S
COEUR D`ALENE  CLOUDY    57  52  82 NE15      29.87F
MULLAN PASS    MOCLDY    50  36  58 CALM      29.96F
$$


USA.gov is the U.S. government's official web portal to all federal, state and local government web resources and services.